This demonstration page uses our WeatherBlox Daily Observations layout. Learn more.

Left ArrowRight Arrow

Hourly Observations for July 13, 2017

Temp ( °F °C ) Dew Point ( °F °C ) Humidity (%) Winds ( mph kmh ) Pressure ( in mb ) Visibility ( mi km ) Precip ( " mm )
12:53 am 00:53 Cloudy 70 21.1 66 18.9 87 87 NNE 9 15 30.04 1017 10 16 0.00 0.00
1:19 am 01:19 Cloudy with Strong Thunderstorms 69 20.6 66 18.9 90 90 N 12 19 30.03 1017 3 4 0.00 0.03
1:27 am 01:27 Cloudy with Strong Thunderstorms 68 20 66 18.9 93 93 NNE 14 22 30.03 1017 1 2 0.00 0.00
1:37 am 01:37 Cloudy with Nearby Thunderstorms 69 20.6 67 19.4 93 93 N 10 17 30.03 1017 3 4 0.00 0.00
1:44 am 01:44 Cloudy with Thunderstorms 70 21 66 19 88 88 NNE 10 17 30.03 1017 3 5 0.00 0.00
1:53 am 01:53 Cloudy with Light Rain 68 20 66 18.9 93 93 NE 8 13 30.06 1018 7 11 0.00 0.00
2:53 am 02:53 Cloudy with Light Rain 68 20 66 18.9 93 93 ENE 6 9 30.05 1018 9 14 0.00 0.03
3:10 am 03:10 Mostly Cloudy with Nearby Thunderstorms 70 21 66 19 88 88 NW 8 13 30.03 1017 9 14 0.00 0.00
3:26 am 03:26 Cloudy with Thunderstorms 68 20 66 19 94 94 NNW 12 19 30.03 1017 10 16 0.00 0.00
3:53 am 03:53 Cloudy with Thunderstorms 69 20.6 67 19.4 93 93 NNW 14 22 30.06 1018 8 13 0.01 0.25
4:08 am 04:08 Mostly Cloudy with Nearby Thunderstorms 70 21 66 19 88 88 NNW 17 28 30.03 1017 9 14 0.00 0.00
4:21 am 04:21 Partly Cloudy with Light Rain 68 20 66 18.9 93 93 NNW 10 17 30.03 1017 10 16 0.00 0.03
4:53 am 04:53 Mostly Clear 68 20 66 18.9 93 93 NE 6 9 30.05 1018 10 16 0.01 0.25
5:53 am 05:53 Clear 68 20 66 18.9 93 93 NE 5 7 30.06 1018 10 16 0.00 0.03
6:53 am 06:53 Mostly Sunny 68 20 65 18.3 90 90 E 7 11 30.04 1017 10 16 0.01 0.25
7:53 am 07:53 Sunny 68 20 65 18.3 90 90 SE 7 11 30.07 1018 8 13 0.00 0.00
8:53 am 08:53 Sunny 71 21.7 66 18.9 84 84 ENE 9 15 30.10 1019 10 16 0.00 0.00
9:53 am 09:53 Cloudy 71 21.7 66 18.9 84 84 NNE 9 15 30.13 1020 10 16 0.01 0.25
10:01 am 10:01 Cloudy 70 21.1 66 18.9 87 87 NNE 9 15 30.09 1019 10 16 0.00 0.00
10:13 am 10:13 Cloudy 70 21.1 66 18.9 87 87 NE 9 15 30.06 1018 10 16 0.00 0.00
10:53 am 10:53 Mostly Cloudy 72 22.2 67 19.4 84 84 E 9 15 30.12 1020 10 16 0.00 0.00
11:40 am 11:40 Mostly Cloudy 73 23 66 19 78 78 E 10 17 30.09 1019 10 16 0.00 0.00
11:53 am 11:53 Mostly Cloudy 73 22.8 67 19.4 81 81 E 10 17 30.14 1021 10 16 0.00 0.00
12:37 pm 12:37 Partly Cloudy 75 23.9 67 19.4 76 76 ENE 8 13 30.09 1019 10 16 0.00 0.00
12:53 pm 12:53 Partly Cloudy 75 23.9 67 19.4 76 76 E 6 9 30.15 1021 10 16 0.00 0.00
1:53 pm 13:53 Sunny 78 25.6 68 20 71 71 VRB 5 7 30.14 1021 10 16 0.00 0.00
2:53 pm 14:53 Sunny 79 26.1 67 19.4 67 67 ENE 5 7 30.13 1020 10 16 0.00 0.00
3:53 pm 15:53 Sunny 80 26.7 67 19.4 64 64 ENE 6 9 30.12 1020 10 16 0.00 0.00
4:53 pm 16:53 Sunny 81 27.2 66 18.9 61 61 ENE 8 13 30.11 1020 10 16 0.00 0.00
5:53 pm 17:53 Sunny 82 27.8 66 18.9 58 58 ENE 6 9 30.09 1019 10 16 0.00 0.00
6:53 pm 18:53 Partly Cloudy 81 27.2 67 19.4 62 62 E 10 17 30.06 1018 10 16 0.00 0.00
7:53 pm 19:53 Sunny 79 26.1 67 19.4 67 67 E 9 15 30.09 1019 10 16 0.00 0.00
8:53 pm 20:53 Sunny 76 24.4 68 20 77 77 E 8 13 30.10 1019 10 16 0.00 0.00
9:53 pm 21:53 Clear 74 23.3 68 20 82 82 E 5 7 30.12 1020 10 16 0.00 0.00
10:53 pm 22:53 Clear 72 22.2 68 20 87 87 E 3 6 30.14 1021 9 14 0.00 0.00
11:45 pm 23:45 Mostly Cloudy 73 22.8 67 19.4 81 81 E 6 9 30.09 1019 9 14 0.00 0.00
11:53 pm 23:53 Mostly Cloudy 74 23.3 68 20 82 82 ESE 5 7 30.14 1021 9 14 0.00 0.00

Powered by AerisWeather